Location: Gwatt
(46.7204°N, 7.6223°E)
Time: 00:44:52
(UTC+00:00)

Envisat - Pass Details

Date: 28 November 2020
Orbit: 764 x 766 km, 98.1° (Epoch: 19 January)

Event Time Altitude Azimuth Distance (km) Brightness Sun altitude
Rises 05:28:56 0° 14° (NNE) 3,246 6.2 -13.5°
Reaches altitude 10° 05:31:15 10° 15° (NNE) 2,315 5.5 -13.1°
Maximum altitude 05:36:22 83° 103° (ESE) 777 3.1 -12.3°
Drops below altitude 10° 05:41:27 10° 192° (SSW) 2,296 5.6 -11.5°
Sets 05:43:44 0° 193° (SSW) 3,218 6.3 -11.1°
